Location: Unspecified
(0.0000°N, 0.0000°E)
Time: 23:55:17
(UTC+00:00)

Courier 1B Rocket - Pass Details

Date: 07 October 2020
Orbit: 920 x 1202 km, 28.2° (Epoch: 28 October)

Event Time Altitude Azimuth Distance (km) Brightness Sun altitude
Rises 00:41:19 0° 259° (W) 4,068 - -75.5°
Reaches altitude 10° 00:44:30 10° 268° (W) 3,079 - -74.8°
Maximum altitude 00:51:17 34° 331° (NNW) 1,752 - -73.2°
Drops below altitude 10° 00:57:42 10° 34° (NE) 2,909 - -71.7°
Sets 01:00:39 0° 43° (NE) 3,817 - -71.0°
